FW0103 Weather Reports


time (UTC)temp
C
wind
direction
speed
KPH
gust
KPH
rain 1hr
cm
rain 24hr
cm
rain mn
cm
humidity
%
barometer
mb
20180624193818 18 260 4.8 11.3 0.00 0.00 0.00 77 1016.2
20180624193330 18 269 4.8 8.0 0.00 0.00 0.00 77 1016.3
20180624192825 18 236 4.8 16.1 0.00 0.00 0.00 76 1016.3
20180624192327 18 278 6.4 16.1 0.00 0.00 0.00 76 1016.2
20180624191819 18 260 6.4 14.5 0.00 0.00 0.00 75 1016.1
20180624191316 18 240 4.8 16.1 0.00 0.00 0.00 75 1016.1
20180624190827 19 260 4.8 16.1 0.00 0.00 0.00 74 1016.0
20180624190325 19 255 8.0 16.1 0.00 0.00 0.00 74 1016.1
20180624185833 19 230 8.0 16.1 0.00 0.00 0.00 73 1015.9
20180624185323 20 274 9.7 14.5 0.00 0.00 0.00 73 1015.9
20180624184817 20 252 4.8 12.9 0.00 0.00 0.00 73 1015.9
20180624184327 20 240 6.4 12.9 0.00 0.00 0.00 73 1015.9
20180624183816 20 264 8.0 12.9 0.00 0.00 0.00 72 1015.8
20180624183315 20 245 8.0 14.5 0.00 0.00 0.00 72 1015.8
20180624182826 20 252 8.0 12.9 0.00 0.00 0.00 72 1015.8
20180624182317 20 257 8.0 16.1 0.00 0.00 0.00 72 1015.7
20180624181830 20 287 9.7 17.7 0.00 0.00 0.00 72 1015.6
20180624181319 21 238 9.7 17.7 0.00 0.00 0.00 71 1015.7
20180624180816 21 260 8.0 16.1 0.00 0.00 0.00 71 1015.8
20180624180329 21 243 8.0 17.7 0.00 0.00 0.00 70 1015.8
20180624175820 21 267 8.0 17.7 0.00 0.00 0.00 69 1015.6
20180624175317 21 297 4.8 16.1 0.00 0.00 0.00 70 1015.6
20180624174830 21 257 8.0 16.1 0.00 0.00 0.00 70 1015.6
20180624174328 21 255 6.4 14.5 0.00 0.00 0.00 70 1015.6
20180624173834 21 288 6.4 16.1 0.00 0.00 0.00 69 1015.6
20180624173326 22 254 6.4 17.7 0.00 0.00 0.00 69 1015.6
20180624172833 22 256 9.7 17.7 0.00 0.00 0.00 68 1015.6
20180624172325 22 264 11.3 19.3 0.00 0.00 0.00 68 1015.5
20180624171831 22 232 8.0 19.3 0.00 0.00 0.00 67 1015.5
20180624171316 22 262 9.7 17.7 0.00 0.00 0.00 67 1015.4
20180624170829 22 250 9.7 17.7 0.00 0.00 0.00 67 1015.6
20180624170335 22 289 9.7 14.5 0.00 0.00 0.00 66 1015.6
20180624165821 23 261 6.4 16.1 0.00 0.00 0.00 65 1015.5
20180624165325 23 260 9.7 16.1 0.00 0.00 0.00 66 1015.6
20180624164832 22 266 8.0 16.1 0.00 0.00 0.00 65 1015.5
20180624164324 23 280 8.0 17.7 0.00 0.00 0.00 66 1015.5
20180624163832 23 241 8.0 17.7 0.00 0.00 0.00 66 1015.5
20180624163315 23 242 11.3 17.7 0.00 0.00 0.00 65 1015.5
20180624162826 23 245 9.7 17.7 0.00 0.00 0.00 66 1015.5
20180624162334 23 250 9.7 17.7 0.00 0.00 0.00 66 1015.5
20180624161825 23 291 6.4 17.7 0.00 0.00 0.00 66 1015.5
20180624161332 23 263 12.9 17.7 0.00 0.00 0.00 65 1015.7
20180624160823 23 238 9.7 16.1 0.00 0.00 0.00 65 1015.6
20180624160331 23 238 8.0 16.1 0.00 0.00 0.00 64 1015.6
20180624155822 23 198 6.4 17.7 0.00 0.00 0.00 65 1015.6
20180624155332 23 260 9.7 19.3 0.00 0.00 0.00 65 1015.5
20180624154822 23 199 9.7 17.7 0.00 0.00 0.00 65 1015.6
20180624154332 23 266 11.3 19.3 0.00 0.00 0.00 65 1015.5
20180624153822 23 271 6.4 19.3 0.00 0.00 0.00 66 1015.7
20180624153316 23 223 9.7 19.3 0.00 0.00 0.00 64 1015.6
20180624152825 24 253 11.3 19.3 0.00 0.00 0.00 63 1015.5
20180624152320 24 235 11.3 22.5 0.00 0.00 0.00 64 1015.5
20180624151827 24 275 14.5 22.5 0.00 0.00 0.00 62 1015.4
20180624151323 25 267 6.4 20.9 0.00 0.00 0.00 64 1015.6
20180624150832 25 236 11.3 19.3 0.00 0.00 0.00 63 1015.6
20180624150323 25 240 11.3 22.5 0.00 0.00 0.00 63 1015.5
20180624145819 25 244 12.9 22.5 0.00 0.00 0.00 60 1015.4
20180624145331 25 285 9.7 19.3 0.00 0.00 0.00 60 1015.4
20180624144825 25 269 8.0 17.7 0.00 0.00 0.00 63 1015.4
20180624144316 26 309 11.3 17.7 0.00 0.00 0.00 60 1015.4
20180624143815 26 269 9.7 16.1 0.00 0.00 0.00 60 1015.5
20180624143319 26 315 8.0 24.1 0.00 0.00 0.00 62 1015.5
20180624142818 26 283 12.9 24.1 0.00 0.00 0.00 60 1015.6
20180624142329 26 215 12.9 19.3 0.00 0.00 0.00 58 1015.4
20180624141823 26 277 8.0 20.9 0.00 0.00 0.00 61 1015.4
20180624141320 26 279 9.7 20.9 0.00 0.00 0.00 60 1015.3
20180624140830 26 299 9.7 17.7 0.00 0.00 0.00 61 1015.4
20180624140321 26 229 9.7 20.9 0.00 0.00 0.00 60 1015.3
20180624135817 27 247 8.0 19.3 0.00 0.00 0.00 58 1015.4
20180624135325 27 256 11.3 19.3 0.00 0.00 0.00 59 1015.2
20180624134818 27 292 8.0 19.3 0.00 0.00 0.00 58 1015.3
20180624134324 27 223 11.3 19.3 0.00 0.00 0.00 58 1015.2
20180624133817 27 288 11.3 24.1 0.00 0.00 0.00 60 1015.1
20180624133326 27 212 12.9 24.1 0.00 0.00 0.00 57 1015.1
20180624132819 28 262 11.3 19.3 0.00 0.00 0.00 56 1015.0
20180624132328 28 264 9.7 19.3 0.00 0.00 0.00 54 1015.0
20180624131821 30 268 11.3 17.7 0.00 0.00 0.00 51 1015.1
20180624131329 30 287 0.0 12.9 0.00 0.00 0.00 50 1014.9
20180624130823 30 285 6.4 12.9 0.00 0.00 0.00 53 1014.9
20180624130328 30 44 1.6 11.3 0.00 0.00 0.00 54 1015.0
20180624125822 30 265 4.8 11.3 0.00 0.00 0.00 53 1015.0
20180624125325 30 51 0.0 8.0 0.00 0.00 0.00 53 1015.1
20180624124815 29 293 4.8 8.0 0.00 0.00 0.00 53 1015.2
20180624124322 29 224 3.2 8.0 0.00 0.00 0.00 53 1015.3
20180624123829 29 266 1.6 6.4 0.00 0.00 0.00 55 1015.3
20180624123330 29 246 1.6 6.4 0.00 0.00 0.00 54 1015.3
20180624122816 28 200 1.6 11.3 0.00 0.00 0.00 56 1015.5
20180624122318 28 268 3.2 11.3 0.00 0.00 0.00 58 1015.5
20180624121828 28 67 1.6 4.8 0.00 0.00 0.00 53 1015.5
20180624121326 28 215 1.6 11.3 0.00 0.00 0.00 55 1015.5
20180624120814 28 240 3.2 9.7 0.00 0.00 0.00 57 1015.5
20180624120317 27 226 1.6 8.0 0.00 0.00 0.00 59 1015.6
20180624115831 28 38 3.2 8.0 0.00 0.00 0.00 55 1015.6
20180624115334 27 153 1.6 4.8 0.00 0.00 0.00 58 1015.7
20180624114824 27 254 1.6 3.2 0.00 0.00 0.00 59 1015.8
20180624114327 27 321 0.0 6.4 0.00 0.00 0.00 59 1015.9
20180624113819 26 311 0.0 9.7 0.00 0.00 0.00 62 1016.0
20180624113327 26 66 4.8 9.7 0.00 0.00 0.00 60 1016.0
20180624112815 26 51 4.8 8.0 0.00 0.00 0.00 60 1016.0
20180624112319 26 82 3.2 8.0 0.00 0.00 0.00 61 1016.0
20180624111827 26 76 1.6 4.8 0.00 0.00 0.00 62 1016.1
20180624111333 26 60 1.6 4.8 0.00 0.00 0.00 62 1016.1
20180624110824 25 66 1.6 6.4 0.00 0.00 0.00 63 1016.2
20180624110329 26 113 1.6 4.8 0.00 0.00 0.00 63 1016.1
20180624105817 25 259 1.6 3.2 0.00 0.00 0.00 64 1016.2
20180624105323 25 127 0.0 3.2 0.00 0.00 0.00 65 1016.2
20180624104818 25 159 0.0 3.2 0.00 0.00 0.00 65 1016.3
20180624104327 25 356 0.0 3.2 0.00 0.00 0.00 66 1016.3
20180624103830 24 184 1.6 3.2 0.00 0.00 0.00 67 1016.4
20180624103317 23 335 0.0 3.2 0.00 0.00 0.00 70 1016.4
20180624102819 23 95 1.6 4.8 0.00 0.00 0.00 71 1016.4
20180624102329 23 72 1.6 4.8 0.00 0.00 0.00 71 1016.5
20180624101830 23 294 0.0 4.8 0.00 0.00 0.00 73 1016.6
20180624101317 23 91 3.2 4.8 0.00 0.00 0.00 72 1016.6
20180624100824 23 245 0.0 4.8 0.00 0.00 0.00 74 1016.6
20180624100328 22 259 1.6 4.8 0.00 0.00 0.00 75 1016.7
20180624095814 22 215 0.0 3.2 0.00 0.00 0.00 79 1016.6
20180624095317 21 134 0.0 3.2 0.00 0.00 0.00 80 1016.7
20180624094824 21 136 1.6 4.8 0.00 0.00 0.00 83 1016.6
20180624094327 21 282 1.6 4.8 0.00 0.00 0.00 86 1016.7
20180624093834 20 98 1.6 3.2 0.00 0.00 0.00 87 1016.7
20180624093332 20 86 1.6 4.8 0.00 0.00 0.00 89 1016.7
20180624092818 19 80 3.2 3.2 0.00 0.00 0.00 91 1016.7
20180624092317 18 278 0.0 3.2 0.00 0.00 0.00 92 1016.8
20180624091825 18 271 1.6 6.4 0.00 0.00 0.00 93 1016.7
20180624091328 18 250 3.2 6.4 0.00 0.00 0.00 94 1016.7
20180624090832 18 75 1.6 4.8 0.00 0.00 0.00 95 1016.7
20180624090333 18 96 1.6 4.8 0.00 0.00 0.00 95 1016.8
20180624085823 18 267 1.6 4.8 0.00 0.00 0.00 95 1016.8
20180624085330 17 278 0.0 4.8 0.00 0.00 0.00 96 1016.8
20180624084834 17 264 1.6 4.8 0.00 0.00 0.00 96 1016.7
20180624084317 17 279 0.0 3.2 0.00 0.00 0.00 96 1016.7
20180624083829 17 283 0.0 3.2 0.00 0.00 0.00 97 1016.7
20180624083334 17 272 0.0 4.8 0.00 0.00 0.00 97 1016.7
20180624082824 17 205 1.6 4.8 0.00 0.00 0.00 97 1016.8
20180624082328 17 276 1.6 4.8 0.00 0.00 0.00 97 1016.9
20180624081819 16 247 1.6 6.4 0.00 0.00 0.00 97 1016.8
20180624081321 16 253 1.6 6.4 0.00 0.00 0.00 97 1016.7